map of OSN home
Great Circle Mapper logo
OSN - Airport
Location
City:  Osan, Republic of Korea (South Korea)
Name:Osan AB
ICAO / IATA:RKSO / OSN

Details
Type:Airport (Aerodrome, Airfield)
Use:Military, International (customs port of entry)
Latitude:37°05'26"N (37.090617)
Longitude:127°01'47"E (127.029594)
Datum:WGS 1984
Elevation:40 ft (12 m)
Variation:8.12°W (WMM2015 magnetic declination)
-0.07° annual change
Runways:1
Longest:9004 × 150 ft (2744 × 45.5 m), paved

Time
Time Zone:UTC+9
Local Time:

Weather
METAR:RKSO 280458Z 21009KT 6SM HZ SCT033 BKN045 31/23 A2975 RMK AO2A SLP077 T03050229

Related Locations
Nearby:
Farthest:SUPE: 12248 mi / 19712 km
Punta el Este [El Jagüel Airport], MA, UY

Find:

   beyond  
but within

Other Information
Maps:
NOTAMs:
Links:
Sources:

  
flag of Republic of Korea (South Korea)   

Airport Diagram

Airport diagram for OSN

Airport diagram (OBSOLETE) from NGA

Sectional Chart

Flight Planning
at skyvector.com

Satellite Image

Google Maps Satellite view

 

Copyright © 2004-2015 Karl L. Swartz. All rights reserved.
The Great Circle Mapper name and logo are trademarks of the Great Circle Mapper.
All other trademarks mentioned herein belong to their respective owners.
Please see credits for attibutions and further copyright information.

  Follow gcmap on Facebook Follow gcmap on Twitter Follow gcmap on Google+

hCard Microformat

Geo Microformat